Regional Weather Roundup
Issued by NWS

Home | Current Version | Previous Version | Text Only | Print | Product List | Glossary Off
Versions: 1 2 3 4 5 6 7 8 9 10 11 12 13 14 15 16 17 18 19 20 21 22 23 24 25 26 27 28 29 30 31 32 33 34 35 36 37 38 39 40 41 42 43 44 45 46 47 48 49 50

000
ASUS44 KMEG 271810
RWRTN
TENNESSEE HOURLY STATE WEATHER ROUNDUP
NATIONAL WEATHER SERVICE MEMPHIS TN
100 PM CDT MON MAR 27 2017

TNZ002-004-019-021-049-052-054-088>092-271900-
WEST TENNESSEE

CITY           SKY/WX    TMP DP  RH WIND       PRES   REMARKS
MEMPHIS INTL   PTSUNNY   78  64  61 SW20G29   29.83F
NWS MEMPHIS      N/A     75 N/A N/A MISG        N/A
JACKSON        PTSUNNY   73  62  68 S18G25    29.84F
DYERSBURG      CLOUDY    60  56  86 N10G25    29.85F THUNDER
BOLIVAR        CLOUDY    72  63  73 S9        29.86F
PARIS          PTSUNNY   70  61  73 S12       29.85F
HUNTINGDON     CLOUDY    73  64  73 S12       29.84F
SAVANNAH       MOSUNNY   75  63  64 S10G17    29.89F
$$

TNZ008-025-027-028-033-062-065-066-271900-
NORTH MIDDLE TENNESSEE

CITY           SKY/WX    TMP DP  RH WIND       PRES   REMARKS
NASHVILLE      CLOUDY    75  59  57 SW10G22   29.94F
PORTLAND       PTSUNNY   72  59  64 S12G18    29.93F
CLARKSVILLE    CLOUDY    72  58  61 SW16      29.89F
SMYRNA         CLOUDY    73  61  65 S13       29.95F
COOKEVILLE     MOSUNNY   72  59  64 S16       29.97F
GALLATIN       PTSUNNY   73  61  64 VRB8G16   29.96F
CROSSVILLE     CLOUDY    69  54  58 S14G21    30.02F
$$

TNZ061-075-076-078-094-096-097-271900-
SOUTH MIDDLE TENNESSEE

CITY           SKY/WX    TMP DP  RH WIND       PRES   REMARKS
FAYETTEVILLE   MOSUNNY   73  61  64 SW9G17    29.97F
TULLAHOMA      SUNNY     72  59  64 S10       29.98F
WINCHESTER     SUNNY     73  57  56 S10       29.98F
MCMINNVILLE    MOSUNNY   72  61  68 S8        29.98F
COLUMBIA       MOSUNNY   72  66  83 SW15      29.92F
SHELBYVILLE    SUNNY     73  63  68 S16       29.95F
$$

TNZ017-018-042-046-047-271900-
NORTHEAST TENNESSEE

CITY           SKY/WX    TMP DP  RH WIND       PRES   REMARKS
TRI CITIES     MOSUNNY   77  51  40 SW14G21   30.02F
ELIZABETHTON   PTSUNNY   75  46  35 W9        30.02F
$$

TNZ012-013-036-069-073-074-271900-
CENTRAL EAST TENNESSEE

CITY           SKY/WX    TMP DP  RH WIND       PRES   REMARKS
KNOXVILLE      CLOUDY    72  58  61 S16G23    30.01F
OAK RIDGE      CLOUDY    73  58  59 VRB3      30.01F
DOWNTOWN KNOXV PTSUNNY   73  61  64 SW9G15    30.01F
GATLINBURG     MOSUNNY   73  55  53 CALM      30.00F
MORRISTOWN     CLOUDY    70  61  73 W6        30.02F
JACKSBORO      MOSUNNY   73  59  60 S10       30.02F
$$

TNZ083-085-099-271900-
SOUTHEAST TENNESSEE

CITY           SKY/WX    TMP DP  RH WIND       PRES   REMARKS
CHATTANOOGA    CLOUDY    74  59  59 VRB5      30.01F
$$

SKY/WX REPORTED AS FAIR MEANS FEW OR NO CLOUDS BELOW
12 THOUSAND FEET.





USA.gov is the U.S. government's official web portal to all federal, state and local government web resources and services.